Year,Month,Day,Hour,Minute,Value (Times are PST for temperature in C)
2015,05,30,00,00,17.90
2015,05,30,00,01,17.90
2015,05,30,00,02,17.90
2015,05,30,00,03,17.90
2015,05,30,00,04,17.90
2015,05,30,00,05,17.90
2015,05,30,00,06,17.90
2015,05,30,00,07,17.90
2015,05,30,00,08,17.90
2015,05,30,00,09,17.90
2015,05,30,00,10,17.90
2015,05,30,00,11,17.90
2015,05,30,00,12,17.90
2015,05,30,00,13,17.90
2015,05,30,00,14,18.00
2015,05,30,00,15,18.00
2015,05,30,00,16,18.00
2015,05,30,00,17,18.00
2015,05,30,00,18,18.00
2015,05,30,00,19,18.00
2015,05,30,00,20,18.10
2015,05,30,00,21,18.10
2015,05,30,00,22,18.10
2015,05,30,00,23,18.10
2015,05,30,00,24,18.10
2015,05,30,00,25,18.10
2015,05,30,00,26,18.10
2015,05,30,00,27,18.10
2015,05,30,00,28,18.10
2015,05,30,00,29,18.10
2015,05,30,00,30,18.10
2015,05,30,00,31,18.10
2015,05,30,00,32,18.10
2015,05,30,00,33,18.10
2015,05,30,00,34,18.00
2015,05,30,00,35,18.00
2015,05,30,00,36,18.00
2015,05,30,00,37,18.00
2015,05,30,00,38,18.00
2015,05,30,00,39,18.00
2015,05,30,00,40,18.00
2015,05,30,00,41,18.00
2015,05,30,00,42,18.00
2015,05,30,00,43,18.00
2015,05,30,00,44,18.00
2015,05,30,00,45,18.00
2015,05,30,00,46,18.00
2015,05,30,00,47,18.00
2015,05,30,00,48,18.00
2015,05,30,00,49,18.00
2015,05,30,00,50,18.00
2015,05,30,00,51,18.00
2015,05,30,00,52,18.00
2015,05,30,00,53,18.00
2015,05,30,00,54,18.00
2015,05,30,00,55,18.00
2015,05,30,00,56,17.90
2015,05,30,00,57,17.90
2015,05,30,00,58,17.90
2015,05,30,00,59,17.90
2015,05,30,01,00,17.90
2015,05,30,01,01,17.90
2015,05,30,01,02,17.90
2015,05,30,01,03,17.90
2015,05,30,01,04,17.90
2015,05,30,01,05,17.90
2015,05,30,01,06,17.90
2015,05,30,01,07,17.90
2015,05,30,01,08,17.80
2015,05,30,01,09,17.80
2015,05,30,01,10,17.80
2015,05,30,01,11,17.80
2015,05,30,01,12,17.80
2015,05,30,01,13,17.80
2015,05,30,01,14,17.70
2015,05,30,01,15,17.70
2015,05,30,01,16,17.70
2015,05,30,01,17,17.70
2015,05,30,01,18,17.60
2015,05,30,01,19,17.60
2015,05,30,01,20,17.60
2015,05,30,01,21,17.60
2015,05,30,01,22,17.60
2015,05,30,01,23,17.60
2015,05,30,01,24,17.60
2015,05,30,01,25,17.50
2015,05,30,01,26,17.50
2015,05,30,01,27,17.50
2015,05,30,01,28,17.50
2015,05,30,01,29,17.40
2015,05,30,01,30,17.40
2015,05,30,01,31,17.40
2015,05,30,01,32,17.40
2015,05,30,01,33,17.40
2015,05,30,01,34,17.40
2015,05,30,01,35,17.30
2015,05,30,01,36,17.30
2015,05,30,01,37,17.30
2015,05,30,01,38,17.30
2015,05,30,01,39,17.30
2015,05,30,01,40,17.30
2015,05,30,01,41,17.20
2015,05,30,01,42,17.20
2015,05,30,01,43,17.20
2015,05,30,01,44,17.20
2015,05,30,01,45,17.20
2015,05,30,01,46,17.20
2015,05,30,01,47,17.10
2015,05,30,01,48,17.10
2015,05,30,01,49,17.10
2015,05,30,01,50,17.10
2015,05,30,01,51,17.10
2015,05,30,01,52,17.00
2015,05,30,01,53,17.00
2015,05,30,01,54,17.00
2015,05,30,01,55,16.90
2015,05,30,01,56,16.90
2015,05,30,01,57,16.90
2015,05,30,01,58,16.90
2015,05,30,01,59,16.90
2015,05,30,02,00,16.80
2015,05,30,02,01,16.80
2015,05,30,02,02,16.80
2015,05,30,02,03,16.80
2015,05,30,02,04,16.70
2015,05,30,02,05,16.70
2015,05,30,02,06,16.70
2015,05,30,02,07,16.60
2015,05,30,02,08,16.60
2015,05,30,02,09,16.60
2015,05,30,02,10,16.60
2015,05,30,02,11,16.60
2015,05,30,02,12,16.50
2015,05,30,02,13,16.50
2015,05,30,02,14,16.50
2015,05,30,02,15,16.40
2015,05,30,02,16,16.40
2015,05,30,02,17,16.40
2015,05,30,02,18,16.40
2015,05,30,02,19,16.30
2015,05,30,02,20,16.30
2015,05,30,02,21,16.30
2015,05,30,02,22,16.30
2015,05,30,02,23,16.30
2015,05,30,02,24,16.20
2015,05,30,02,25,16.20
2015,05,30,02,26,16.20
2015,05,30,02,27,16.20
2015,05,30,02,28,16.20
2015,05,30,02,29,16.10
2015,05,30,02,30,16.10
2015,05,30,02,31,16.00
2015,05,30,02,32,16.00
2015,05,30,02,33,15.90
2015,05,30,02,34,15.90
2015,05,30,02,35,15.90
2015,05,30,02,36,15.80
2015,05,30,02,37,15.80
2015,05,30,02,38,15.80
2015,05,30,02,39,15.80
2015,05,30,02,40,15.80
2015,05,30,02,41,15.80
2015,05,30,02,42,15.80
2015,05,30,02,43,15.70
2015,05,30,02,44,15.70
2015,05,30,02,45,15.70
2015,05,30,02,46,15.70
2015,05,30,02,47,15.70
2015,05,30,02,48,15.70
2015,05,30,02,49,15.70
2015,05,30,02,50,15.70
2015,05,30,02,51,15.70
2015,05,30,02,52,15.70
2015,05,30,02,53,15.70
2015,05,30,02,54,15.70
2015,05,30,02,55,15.70
2015,05,30,02,56,15.70
2015,05,30,02,57,15.80
2015,05,30,02,58,15.80
2015,05,30,02,59,15.80
2015,05,30,03,00,15.70
2015,05,30,03,01,15.70
2015,05,30,03,02,15.70
2015,05,30,03,06,15.70
2015,05,30,03,07,15.70
2015,05,30,03,08,15.70
2015,05,30,03,09,15.60
2015,05,30,03,10,15.60
2015,05,30,03,11,15.60
2015,05,30,03,12,15.60
2015,05,30,03,13,15.60
2015,05,30,03,14,15.60
2015,05,30,03,15,15.60
2015,05,30,03,16,15.70
2015,05,30,03,17,15.60
2015,05,30,03,18,15.60
2015,05,30,03,19,15.60
2015,05,30,03,20,15.60
2015,05,30,03,21,15.60
2015,05,30,03,22,15.60
2015,05,30,03,23,15.60
2015,05,30,03,24,15.60
2015,05,30,03,25,15.60
2015,05,30,03,26,15.60
2015,05,30,03,27,15.60
2015,05,30,03,28,15.60
2015,05,30,03,29,15.60
2015,05,30,03,30,15.60
2015,05,30,03,31,15.60
2015,05,30,03,32,15.50
2015,05,30,03,33,15.50
2015,05,30,03,34,15.50
2015,05,30,03,35,15.50
2015,05,30,03,36,15.40
2015,05,30,03,37,15.50
2015,05,30,03,38,15.50
2015,05,30,03,39,15.50
2015,05,30,03,40,15.50
2015,05,30,03,41,15.40
2015,05,30,03,42,15.40
2015,05,30,03,43,15.40
2015,05,30,03,44,15.40
2015,05,30,03,45,15.40
2015,05,30,03,46,15.40
2015,05,30,03,47,15.40
2015,05,30,03,48,15.40
2015,05,30,03,49,15.30
2015,05,30,03,50,15.30
2015,05,30,03,51,15.30
2015,05,30,03,52,15.30
2015,05,30,03,53,15.30
2015,05,30,03,54,15.30
2015,05,30,03,55,15.30
2015,05,30,03,56,15.30
2015,05,30,03,57,15.30
2015,05,30,03,58,15.30
2015,05,30,03,59,15.30
2015,05,30,04,00,15.20
2015,05,30,04,01,15.20
2015,05,30,04,02,15.20
2015,05,30,04,03,15.20
2015,05,30,04,04,15.20
2015,05,30,04,05,15.20
2015,05,30,04,06,15.20
2015,05,30,04,07,15.20
2015,05,30,04,08,15.20
2015,05,30,04,09,15.20
2015,05,30,04,10,15.10
2015,05,30,04,11,15.10
2015,05,30,04,12,15.10
2015,05,30,04,13,15.10
2015,05,30,04,14,15.10
2015,05,30,04,15,15.10
2015,05,30,04,16,15.10
2015,05,30,04,17,15.00
2015,05,30,04,18,15.00
2015,05,30,04,19,15.00
2015,05,30,04,20,14.90
2015,05,30,04,21,14.90
2015,05,30,04,22,14.90
2015,05,30,04,23,14.90
2015,05,30,04,24,14.90
2015,05,30,04,25,14.80
2015,05,30,04,26,14.80
2015,05,30,04,27,14.80
2015,05,30,04,28,14.80
2015,05,30,04,29,14.80
2015,05,30,04,30,14.80
2015,05,30,04,31,14.80
2015,05,30,04,32,14.80
2015,05,30,04,33,14.70
2015,05,30,04,34,14.70
2015,05,30,04,35,14.70
2015,05,30,04,36,14.70
2015,05,30,04,37,14.70
2015,05,30,04,38,14.80
2015,05,30,04,39,14.80
2015,05,30,04,40,14.80
2015,05,30,04,41,14.80
2015,05,30,04,42,14.80
2015,05,30,04,43,14.80
2015,05,30,04,44,14.80
2015,05,30,04,45,14.80
2015,05,30,04,46,14.80
2015,05,30,04,47,14.80
2015,05,30,04,48,14.80
2015,05,30,04,49,14.80
2015,05,30,04,50,14.80
2015,05,30,04,51,14.80
2015,05,30,04,52,14.80
2015,05,30,04,53,14.80
2015,05,30,04,54,14.80
2015,05,30,04,55,14.80
2015,05,30,04,56,14.80
2015,05,30,04,57,14.80
2015,05,30,04,58,14.80
2015,05,30,04,59,14.80
2015,05,30,05,00,14.80
2015,05,30,05,01,14.80
2015,05,30,05,02,14.80
2015,05,30,05,03,14.80
2015,05,30,05,04,14.80
2015,05,30,05,05,14.80
2015,05,30,05,06,14.80
2015,05,30,05,07,14.80
2015,05,30,05,08,14.80
2015,05,30,05,09,14.80
2015,05,30,05,10,14.80
2015,05,30,05,11,14.80
2015,05,30,05,12,14.80
2015,05,30,05,13,14.70
2015,05,30,05,14,14.70
2015,05,30,05,15,14.70
2015,05,30,05,16,14.70
2015,05,30,05,17,14.70
2015,05,30,05,18,14.70
2015,05,30,05,19,14.70
2015,05,30,05,20,14.70
2015,05,30,05,21,14.70
2015,05,30,05,22,14.70
2015,05,30,05,23,14.70
2015,05,30,05,24,14.70
2015,05,30,05,25,14.70
2015,05,30,05,26,14.70
2015,05,30,05,27,14.70
2015,05,30,05,28,14.70
2015,05,30,05,29,14.70
2015,05,30,05,30,14.70
2015,05,30,05,31,14.70
2015,05,30,05,32,14.70
2015,05,30,05,33,14.70
2015,05,30,05,34,14.60
2015,05,30,05,35,14.60
2015,05,30,05,36,14.60
2015,05,30,05,37,14.60
2015,05,30,05,38,14.60
2015,05,30,05,39,14.60
2015,05,30,05,40,14.60
2015,05,30,05,41,14.60
2015,05,30,05,42,14.60
2015,05,30,05,43,14.60
2015,05,30,05,44,14.70
2015,05,30,05,45,14.70
2015,05,30,05,46,14.70
2015,05,30,05,47,14.70
2015,05,30,05,48,14.70
2015,05,30,05,49,14.70
2015,05,30,05,50,14.70
2015,05,30,05,51,14.70
2015,05,30,05,52,14.80
2015,05,30,05,53,14.80
2015,05,30,05,54,14.80
2015,05,30,05,55,14.80
2015,05,30,05,56,14.80
2015,05,30,05,57,14.80
2015,05,30,05,58,14.80
2015,05,30,05,59,14.80
2015,05,30,06,00,14.80
2015,05,30,06,01,14.80
2015,05,30,06,02,14.80
2015,05,30,06,03,14.80
2015,05,30,06,04,14.80
2015,05,30,06,05,14.90
2015,05,30,06,06,14.90
2015,05,30,06,07,14.90
2015,05,30,06,08,14.90
2015,05,30,06,09,14.90
2015,05,30,06,10,14.90
2015,05,30,06,11,14.90
2015,05,30,06,12,15.00
2015,05,30,06,13,15.00
2015,05,30,06,14,15.00
2015,05,30,06,15,15.00
2015,05,30,06,16,15.10
2015,05,30,06,17,15.10
2015,05,30,06,18,15.10
2015,05,30,06,19,15.10
2015,05,30,06,20,15.10
2015,05,30,06,21,15.20
2015,05,30,06,22,15.20
2015,05,30,06,23,15.20
2015,05,30,06,24,15.20
2015,05,30,06,25,15.20
2015,05,30,06,26,15.20
2015,05,30,06,27,15.30
2015,05,30,06,28,15.30
2015,05,30,06,29,15.30
2015,05,30,06,30,15.30
2015,05,30,06,31,15.30
2015,05,30,06,32,15.30
2015,05,30,06,33,15.30
2015,05,30,06,34,15.40
2015,05,30,06,35,15.40
2015,05,30,06,36,15.40
2015,05,30,06,37,15.40
2015,05,30,06,38,15.50
2015,05,30,06,39,15.50
2015,05,30,06,40,15.60
2015,05,30,06,41,15.60
2015,05,30,06,42,15.60
2015,05,30,06,43,15.70
2015,05,30,06,44,15.70
2015,05,30,06,45,15.70
2015,05,30,06,46,15.70
2015,05,30,06,47,15.80
2015,05,30,06,48,15.80
2015,05,30,06,49,15.80
2015,05,30,06,50,15.80
2015,05,30,06,51,15.80
2015,05,30,06,52,15.90
2015,05,30,06,53,15.90
2015,05,30,06,54,15.90
2015,05,30,06,55,15.90
2015,05,30,06,56,16.00
2015,05,30,06,57,16.00
2015,05,30,06,58,16.00
2015,05,30,06,59,16.10
2015,05,30,07,00,16.10
2015,05,30,07,01,16.10
2015,05,30,07,02,16.10
2015,05,30,07,03,16.10
2015,05,30,07,04,16.10
2015,05,30,07,05,16.20
2015,05,30,07,06,16.20
2015,05,30,07,07,16.20
2015,05,30,07,08,16.20
2015,05,30,07,09,16.20
2015,05,30,07,10,16.20
2015,05,30,07,11,16.20
2015,05,30,07,12,16.20
2015,05,30,07,13,16.20
2015,05,30,07,14,16.20
2015,05,30,07,15,16.20
2015,05,30,07,16,16.20
2015,05,30,07,17,16.20
2015,05,30,07,18,16.20
2015,05,30,07,19,16.20
2015,05,30,07,20,16.30
2015,05,30,07,21,16.30
2015,05,30,07,22,16.30
2015,05,30,07,23,16.30
2015,05,30,07,24,16.40
2015,05,30,07,25,16.40
2015,05,30,07,26,16.50
2015,05,30,07,27,16.50
2015,05,30,07,28,16.60
2015,05,30,07,29,16.60
2015,05,30,07,30,16.60
2015,05,30,07,31,16.60
2015,05,30,07,32,16.60
2015,05,30,07,33,16.70
2015,05,30,07,34,16.70
2015,05,30,07,35,16.70
2015,05,30,07,36,16.80
2015,05,30,07,37,16.80
2015,05,30,07,38,16.80
2015,05,30,07,39,16.80
2015,05,30,07,40,16.90
2015,05,30,07,41,16.90
2015,05,30,07,42,17.00
2015,05,30,07,43,17.10
2015,05,30,07,44,17.10
2015,05,30,07,45,17.10
2015,05,30,07,46,17.10
2015,05,30,07,47,17.10
2015,05,30,07,48,17.10
2015,05,30,07,49,17.10
2015,05,30,07,50,17.10
2015,05,30,07,51,17.10
2015,05,30,07,52,17.10
2015,05,30,07,53,17.10
2015,05,30,07,54,17.10
2015,05,30,07,55,17.10
2015,05,30,07,56,17.20
2015,05,30,07,57,17.20
2015,05,30,07,58,17.20
2015,05,30,07,59,17.30
2015,05,30,08,00,17.30
2015,05,30,08,01,17.30
2015,05,30,08,02,17.40
2015,05,30,08,03,17.40
2015,05,30,08,04,17.40
2015,05,30,08,05,17.30
2015,05,30,08,06,17.30
2015,05,30,08,07,17.30
2015,05,30,08,08,17.20
2015,05,30,08,09,17.20
2015,05,30,08,10,17.20
2015,05,30,08,11,17.20
2015,05,30,08,12,17.20
2015,05,30,08,13,17.20
2015,05,30,08,14,17.20
2015,05,30,08,15,17.20
2015,05,30,08,16,17.20
2015,05,30,08,17,17.20
2015,05,30,08,18,17.10
2015,05,30,08,19,17.10
2015,05,30,08,20,17.10
2015,05,30,08,21,17.10
2015,05,30,08,22,17.10
2015,05,30,08,23,17.10
2015,05,30,08,24,17.10
2015,05,30,08,25,17.10
2015,05,30,08,26,17.20
2015,05,30,08,27,17.20
2015,05,30,08,28,17.10
2015,05,30,08,29,17.10
2015,05,30,08,30,17.20
2015,05,30,08,31,17.20
2015,05,30,08,32,17.20
2015,05,30,08,33,17.30
2015,05,30,08,34,17.30
2015,05,30,08,35,17.30
2015,05,30,08,36,17.40
2015,05,30,08,37,17.40
2015,05,30,08,38,17.40
2015,05,30,08,39,17.40
2015,05,30,08,40,17.30
2015,05,30,08,41,17.30
2015,05,30,08,42,17.20
2015,05,30,08,43,17.20
2015,05,30,08,44,17.20
2015,05,30,08,45,17.20
2015,05,30,08,46,17.10
2015,05,30,08,47,17.10
2015,05,30,08,48,17.10
2015,05,30,08,49,17.20
2015,05,30,08,50,17.20
2015,05,30,08,51,17.20
2015,05,30,08,52,17.20
2015,05,30,08,53,17.20
2015,05,30,08,54,17.20
2015,05,30,08,55,17.20
2015,05,30,08,56,17.20
2015,05,30,08,57,17.20
2015,05,30,08,58,17.20
2015,05,30,08,59,17.10
2015,05,30,09,00,17.10
2015,05,30,09,01,17.10
2015,05,30,09,02,17.10
2015,05,30,09,03,17.20
2015,05,30,09,04,17.30
2015,05,30,09,05,17.30
2015,05,30,09,06,17.40
2015,05,30,09,07,17.40
2015,05,30,09,08,17.40
2015,05,30,09,09,17.40
2015,05,30,09,10,17.40
2015,05,30,09,11,17.40
2015,05,30,09,12,17.40
2015,05,30,09,13,17.40
2015,05,30,09,14,17.40
2015,05,30,09,15,17.40
2015,05,30,09,16,17.40
2015,05,30,09,17,17.40
2015,05,30,09,18,17.40
2015,05,30,09,19,17.40
2015,05,30,09,20,17.50
2015,05,30,09,21,17.60
2015,05,30,09,22,17.60
2015,05,30,09,23,17.60
2015,05,30,09,24,17.60
2015,05,30,09,25,17.50
2015,05,30,09,26,17.50
2015,05,30,09,27,17.50
2015,05,30,09,28,17.50
2015,05,30,09,29,17.50
2015,05,30,09,30,17.50
2015,05,30,09,31,17.50
2015,05,30,09,32,17.50
2015,05,30,09,33,17.50
2015,05,30,09,34,17.60
2015,05,30,09,35,17.60
2015,05,30,09,36,17.60
2015,05,30,09,37,17.60
2015,05,30,09,38,17.60
2015,05,30,09,39,17.60
2015,05,30,09,40,17.60
2015,05,30,09,41,17.50
2015,05,30,09,42,17.40
2015,05,30,09,43,17.30
2015,05,30,09,44,17.20
2015,05,30,09,45,17.20
2015,05,30,09,46,17.20
2015,05,30,09,47,17.20
2015,05,30,09,48,17.30
2015,05,30,09,49,17.30
2015,05,30,09,50,17.30
2015,05,30,09,51,17.30
2015,05,30,09,52,17.30
2015,05,30,09,53,17.30
2015,05,30,09,54,17.30
2015,05,30,09,55,17.30
2015,05,30,09,56,17.30
2015,05,30,09,57,17.20
2015,05,30,09,58,17.20
2015,05,30,09,59,17.30
2015,05,30,10,00,17.30
2015,05,30,10,01,17.30
2015,05,30,10,02,17.30
2015,05,30,10,03,17.30
2015,05,30,10,04,17.30
2015,05,30,10,05,17.30
2015,05,30,10,06,17.30
2015,05,30,10,07,17.30
2015,05,30,10,08,17.30
2015,05,30,10,09,17.20
2015,05,30,10,10,17.20
2015,05,30,10,11,17.20
2015,05,30,10,12,17.10
2015,05,30,10,13,17.10
2015,05,30,10,14,17.10
2015,05,30,10,15,17.10
2015,05,30,10,16,17.20
2015,05,30,10,17,17.20
2015,05,30,10,18,17.20
2015,05,30,10,19,17.20
2015,05,30,10,20,17.30
2015,05,30,10,21,17.30
2015,05,30,10,22,17.40
2015,05,30,10,23,17.40
2015,05,30,10,24,17.40
2015,05,30,10,25,17.40
2015,05,30,10,26,17.40
2015,05,30,10,27,17.40
2015,05,30,10,28,17.40
2015,05,30,10,29,17.40
2015,05,30,10,30,17.40
2015,05,30,10,31,17.40
2015,05,30,10,32,17.40
2015,05,30,10,33,17.40
2015,05,30,10,34,17.30
2015,05,30,10,35,17.30
2015,05,30,10,36,17.30
2015,05,30,10,37,17.30
2015,05,30,10,38,17.30
2015,05,30,10,39,17.30
2015,05,30,10,40,17.40
2015,05,30,10,41,17.40
2015,05,30,10,42,17.40
2015,05,30,10,43,17.40
2015,05,30,10,44,17.50
2015,05,30,10,45,17.50
2015,05,30,10,46,17.50
2015,05,30,10,47,17.40
2015,05,30,10,48,17.40
2015,05,30,10,49,17.40
2015,05,30,10,50,17.40
2015,05,30,10,51,17.40
2015,05,30,10,52,17.50
2015,05,30,10,53,17.50
2015,05,30,10,54,17.60
2015,05,30,10,55,17.50
2015,05,30,10,56,17.50
2015,05,30,10,57,17.40
2015,05,30,10,58,17.50
2015,05,30,10,59,17.50
2015,05,30,11,00,17.60
2015,05,30,11,01,17.60
2015,05,30,11,02,17.70
2015,05,30,11,03,17.70
2015,05,30,11,04,17.70
2015,05,30,11,05,17.80
2015,05,30,11,06,17.90
2015,05,30,11,07,18.00
2015,05,30,11,08,18.00
2015,05,30,11,09,18.10
2015,05,30,11,10,18.20
2015,05,30,11,11,18.20
2015,05,30,11,12,18.30
2015,05,30,11,13,18.30
2015,05,30,11,14,18.30
2015,05,30,11,15,18.40
2015,05,30,11,16,18.30
2015,05,30,11,17,18.30
2015,05,30,11,18,18.30
2015,05,30,11,19,18.40
2015,05,30,11,20,18.40
2015,05,30,11,21,18.50
2015,05,30,11,22,18.50
2015,05,30,11,23,18.60
2015,05,30,11,24,18.70
2015,05,30,11,25,18.80
2015,05,30,11,26,18.80
2015,05,30,11,27,18.90
2015,05,30,11,28,18.90
2015,05,30,11,29,18.90
2015,05,30,11,30,18.90
2015,05,30,11,31,18.90
2015,05,30,11,32,18.90
2015,05,30,11,33,18.90
2015,05,30,11,34,18.80
2015,05,30,11,35,18.80
2015,05,30,11,36,18.80
2015,05,30,11,37,18.80
2015,05,30,11,38,18.80
2015,05,30,11,39,18.80
2015,05,30,11,40,18.80
2015,05,30,11,41,18.80
2015,05,30,11,42,18.70
2015,05,30,11,43,18.60
2015,05,30,11,44,18.60
2015,05,30,11,45,18.50
2015,05,30,11,46,18.40
2015,05,30,11,47,18.40
2015,05,30,11,48,18.40
2015,05,30,11,49,18.40
2015,05,30,11,50,18.40
2015,05,30,11,51,18.50
2015,05,30,11,52,18.50
2015,05,30,11,53,18.50
2015,05,30,11,54,18.50
2015,05,30,11,55,18.50
2015,05,30,11,56,18.50
2015,05,30,11,57,18.60
2015,05,30,11,58,18.60
2015,05,30,11,59,18.60
2015,05,30,12,00,18.60
2015,05,30,12,01,18.60
2015,05,30,12,02,18.50
2015,05,30,12,03,18.50
2015,05,30,12,04,18.50
2015,05,30,12,05,18.40
2015,05,30,12,06,18.40
2015,05,30,12,07,18.30
2015,05,30,12,08,18.20
2015,05,30,12,09,18.10
2015,05,30,12,10,18.00
2015,05,30,12,11,17.90
2015,05,30,12,12,17.90
2015,05,30,12,13,17.80
2015,05,30,12,14,17.70
2015,05,30,12,15,17.70
2015,05,30,12,16,17.70
2015,05,30,12,17,17.80
2015,05,30,12,18,17.80
2015,05,30,12,19,17.80
2015,05,30,12,20,17.80
2015,05,30,12,21,17.70
2015,05,30,12,22,17.70
2015,05,30,12,23,17.80
2015,05,30,12,24,17.80
2015,05,30,12,25,17.80
2015,05,30,12,26,17.80
2015,05,30,12,27,17.80
2015,05,30,12,28,17.70
2015,05,30,12,29,17.70
2015,05,30,12,30,17.80
2015,05,30,12,31,17.90
2015,05,30,12,32,18.00
2015,05,30,12,33,18.20
2015,05,30,12,34,18.30
2015,05,30,12,35,18.40
2015,05,30,12,36,18.50
2015,05,30,12,37,18.50
2015,05,30,12,38,18.60
2015,05,30,12,39,18.60
2015,05,30,12,40,18.50
2015,05,30,12,41,18.40
2015,05,30,12,42,18.40
2015,05,30,12,43,18.30
2015,05,30,12,44,18.30
2015,05,30,12,45,18.30
2015,05,30,12,46,18.30
2015,05,30,12,47,18.20
2015,05,30,12,48,18.10
2015,05,30,12,49,18.10
2015,05,30,12,50,18.10
2015,05,30,12,51,18.10
2015,05,30,12,52,18.10
2015,05,30,12,53,18.00
2015,05,30,12,54,17.90
2015,05,30,12,55,17.90
2015,05,30,12,56,18.00
2015,05,30,12,57,18.00
2015,05,30,12,58,17.90
2015,05,30,12,59,17.90
2015,05,30,13,00,17.90
2015,05,30,13,01,18.00
2015,05,30,13,02,18.00
2015,05,30,13,03,18.00
2015,05,30,13,04,18.00
2015,05,30,13,05,18.00
2015,05,30,13,06,17.90
2015,05,30,13,07,17.90
2015,05,30,13,08,17.90
2015,05,30,13,09,17.80
2015,05,30,13,10,17.80
2015,05,30,13,11,17.80
2015,05,30,13,12,17.80
2015,05,30,13,13,17.70
2015,05,30,13,14,17.70
2015,05,30,13,15,17.70
2015,05,30,13,16,17.70
2015,05,30,13,17,17.70
2015,05,30,13,18,17.60
2015,05,30,13,19,17.60
2015,05,30,13,20,17.60
2015,05,30,13,21,17.60
2015,05,30,13,22,17.60
2015,05,30,13,23,17.60
2015,05,30,13,24,17.60
2015,05,30,13,25,17.70
2015,05,30,13,26,17.70
2015,05,30,13,27,17.70
2015,05,30,13,28,17.70
2015,05,30,13,29,17.80
2015,05,30,13,30,17.80
2015,05,30,13,31,17.80
2015,05,30,13,32,17.90
2015,05,30,13,33,17.90
2015,05,30,13,34,17.90
2015,05,30,13,35,17.90
2015,05,30,13,36,17.90
2015,05,30,13,37,17.90
2015,05,30,13,38,18.00
2015,05,30,13,39,18.10
2015,05,30,13,40,18.10
2015,05,30,13,41,18.20
2015,05,30,13,42,18.20
2015,05,30,13,43,18.20
2015,05,30,13,44,18.10
2015,05,30,13,45,18.10
2015,05,30,13,46,18.10
2015,05,30,13,47,18.10
2015,05,30,13,48,18.20
2015,05,30,13,49,18.30
2015,05,30,13,50,18.40
2015,05,30,13,51,18.40
2015,05,30,13,52,18.40
2015,05,30,13,53,18.40
2015,05,30,13,54,18.50
2015,05,30,13,55,18.50
2015,05,30,13,56,18.60
2015,05,30,13,57,18.70
2015,05,30,13,58,18.70
2015,05,30,13,59,18.70
2015,05,30,14,00,18.80
2015,05,30,14,01,18.80
2015,05,30,14,02,18.90
2015,05,30,14,03,19.00
2015,05,30,14,04,19.10
2015,05,30,14,05,19.20
2015,05,30,14,06,19.30
2015,05,30,14,07,19.40
2015,05,30,14,08,19.60
2015,05,30,14,09,19.70
2015,05,30,14,10,19.90
2015,05,30,14,11,20.00
2015,05,30,14,12,20.10
2015,05,30,14,13,20.10
2015,05,30,14,14,20.20
2015,05,30,14,15,20.10
2015,05,30,14,16,20.10
2015,05,30,14,17,20.00
2015,05,30,14,18,20.00
2015,05,30,14,19,19.90
2015,05,30,14,20,19.80
2015,05,30,14,21,19.70
2015,05,30,14,22,19.60
2015,05,30,14,23,19.50
2015,05,30,14,24,19.50
2015,05,30,14,25,19.60
2015,05,30,14,26,19.70
2015,05,30,14,27,19.80
2015,05,30,14,28,19.90
2015,05,30,14,29,20.00
2015,05,30,14,30,20.10
2015,05,30,14,31,20.20
2015,05,30,14,32,20.20
2015,05,30,14,33,20.30
2015,05,30,14,34,20.40
2015,05,30,14,35,20.40
2015,05,30,14,36,20.50
2015,05,30,14,37,20.60
2015,05,30,14,38,20.60
2015,05,30,14,39,20.70
2015,05,30,14,40,20.60
2015,05,30,14,41,20.60
2015,05,30,14,42,20.60
2015,05,30,14,43,20.50
2015,05,30,14,44,20.40
2015,05,30,14,45,20.40
2015,05,30,14,46,20.40
2015,05,30,14,47,20.40
2015,05,30,14,48,20.40
2015,05,30,14,49,20.50
2015,05,30,14,50,20.60
2015,05,30,14,51,20.70
2015,05,30,14,52,20.80
2015,05,30,14,53,20.90
2015,05,30,14,54,20.90
2015,05,30,14,55,20.90
2015,05,30,14,56,20.80
2015,05,30,14,57,20.90
2015,05,30,14,58,20.90
2015,05,30,14,59,21.00
2015,05,30,15,00,21.10
2015,05,30,15,01,21.10
2015,05,30,15,02,21.20
2015,05,30,15,03,21.30
2015,05,30,15,04,21.40
2015,05,30,15,05,21.50
2015,05,30,15,06,21.50
2015,05,30,15,07,21.60
2015,05,30,15,08,21.70
2015,05,30,15,09,21.70
2015,05,30,15,10,21.70
2015,05,30,15,11,21.70
2015,05,30,15,12,21.70
2015,05,30,15,13,21.70
2015,05,30,15,14,21.70
2015,05,30,15,15,21.80
2015,05,30,15,16,21.80
2015,05,30,15,17,21.90
2015,05,30,15,18,21.90
2015,05,30,15,19,21.90
2015,05,30,15,20,21.90
2015,05,30,15,21,21.80
2015,05,30,15,22,21.80
2015,05,30,15,23,21.70
2015,05,30,15,24,21.70
2015,05,30,15,25,21.70
2015,05,30,15,26,21.70
2015,05,30,15,27,21.70
2015,05,30,15,28,21.70
2015,05,30,15,29,21.60
2015,05,30,15,30,21.60
2015,05,30,15,31,21.50
2015,05,30,15,32,21.60
2015,05,30,15,33,21.60
2015,05,30,15,34,21.70
2015,05,30,15,35,21.80
2015,05,30,15,36,21.90
2015,05,30,15,37,21.90
2015,05,30,15,38,22.00
2015,05,30,15,39,22.10
2015,05,30,15,40,22.10
2015,05,30,15,41,22.00
2015,05,30,15,42,21.90
2015,05,30,15,43,21.80
2015,05,30,15,44,21.80
2015,05,30,15,45,21.80
2015,05,30,15,46,21.80
2015,05,30,15,47,21.80
2015,05,30,15,48,21.90
2015,05,30,15,49,22.00
2015,05,30,15,50,22.00
2015,05,30,15,51,22.10
2015,05,30,15,52,22.10
2015,05,30,15,53,22.10
2015,05,30,15,54,22.00
2015,05,30,15,55,22.00
2015,05,30,15,56,22.00
2015,05,30,15,57,22.00
2015,05,30,15,58,22.00
2015,05,30,15,59,22.10
2015,05,30,16,00,22.10
2015,05,30,16,01,22.10
2015,05,30,16,02,22.10
2015,05,30,16,03,22.00
2015,05,30,16,04,21.90
2015,05,30,16,05,21.90
2015,05,30,16,06,21.80
2015,05,30,16,07,21.80
2015,05,30,16,08,21.80
2015,05,30,16,09,21.70
2015,05,30,16,10,21.70
2015,05,30,16,11,21.60
2015,05,30,16,12,21.60
2015,05,30,16,13,21.60
2015,05,30,16,14,21.60
2015,05,30,16,15,21.60
2015,05,30,16,16,21.60
2015,05,30,16,17,21.60
2015,05,30,16,18,21.60
2015,05,30,16,19,21.60
2015,05,30,16,20,21.60
2015,05,30,16,21,21.50
2015,05,30,16,22,21.40
2015,05,30,16,23,21.30
2015,05,30,16,24,21.20
2015,05,30,16,25,21.10
2015,05,30,16,26,21.10
2015,05,30,16,27,21.10
2015,05,30,16,28,21.20
2015,05,30,16,29,21.20
2015,05,30,16,30,21.30
2015,05,30,16,31,21.40
2015,05,30,16,32,21.40
2015,05,30,16,33,21.30
2015,05,30,16,34,21.20
2015,05,30,16,35,21.20
2015,05,30,16,36,21.10
2015,05,30,16,37,21.10
2015,05,30,16,38,21.10
2015,05,30,16,39,21.00
2015,05,30,16,40,21.00
2015,05,30,16,41,21.00
2015,05,30,16,42,21.00
2015,05,30,16,43,21.00
2015,05,30,16,44,21.00
2015,05,30,16,45,21.00
2015,05,30,16,46,20.90
2015,05,30,16,47,20.90
2015,05,30,16,48,20.90
2015,05,30,16,49,20.80
2015,05,30,16,50,20.80
2015,05,30,16,51,20.80
2015,05,30,16,52,20.80
2015,05,30,16,53,20.90
2015,05,30,16,54,20.90
2015,05,30,16,55,20.90
2015,05,30,16,56,20.90
2015,05,30,16,57,20.90
2015,05,30,16,58,20.90
2015,05,30,16,59,20.80
2015,05,30,17,00,20.80
2015,05,30,17,01,20.80
2015,05,30,17,02,20.80
2015,05,30,17,03,20.80
2015,05,30,17,04,20.70
2015,05,30,17,05,20.60
2015,05,30,17,06,20.60
2015,05,30,17,07,20.50
2015,05,30,17,08,20.40
2015,05,30,17,09,20.40
2015,05,30,17,10,20.40
2015,05,30,17,11,20.40
2015,05,30,17,12,20.40
2015,05,30,17,13,20.40
2015,05,30,17,14,20.40
2015,05,30,17,15,20.40
2015,05,30,17,16,20.40
2015,05,30,17,17,20.40
2015,05,30,17,18,20.50
2015,05,30,17,19,20.50
2015,05,30,17,20,20.50
2015,05,30,17,21,20.30
2015,05,30,17,22,20.20